Location: Lecco
(45.8566°N, 9.3977°E)
Time: 05:53:31
(UTC+02:00)

Vanguard 1 - All Passes

Search period start: 08 August 2020 00:00
Search period end: 18 August 2020 00:00
Orbit: 649 x 3833 km, 34.3° (Epoch: 06 August)

Date Brightness Start Highest point End Pass type
(mag) Time Alt. Az. Time Alt. Az. Time Alt. Az.
08 Aug - 08:40:41 10° SSE 08:52:21 17° SE 09:04:32 10° E daylight
08 Aug - 10:54:55 10° SSW 11:14:55 41° SSE 11:33:23 10° E daylight
08 Aug - 13:17:04 10° WSW 13:39:39 57° S 13:56:12 10° E daylight
08 Aug - 15:43:12 10° W 16:03:44 52° SSW 16:16:26 10° SE daylight
08 Aug - 18:11:33 10° W 18:24:44 27° SW 18:33:24 10° S daylight
09 Aug - 08:58:01 10° S 09:12:34 23° SE 09:27:59 10° E daylight
09 Aug - 11:14:54 10° SW 11:35:43 47° SSE 11:54:40 10° E daylight
09 Aug - 13:38:02 10° WSW 14:00:43 59° S 14:17:02 10° ESE daylight
09 Aug - 16:04:37 10° W 16:24:28 48° SSW 16:36:48 10° SE daylight
09 Aug - 18:33:50 10° W 18:44:46 21° SW 18:52:32 10° S daylight
10 Aug - 09:16:29 10° S 09:32:53 29° SE 09:50:24 10° E daylight
10 Aug - 11:35:11 10° SW 11:56:38 52° SSE 12:15:49 10° E daylight
10 Aug - 13:59:07 10° WSW 14:21:46 59° S 14:37:47 10° ESE daylight
10 Aug - 16:26:07 10° W 16:45:03 43° SSW 16:56:59 10° SE daylight
10 Aug - 18:56:57 10° W 19:04:42 15° SW 19:10:46 10° SSW daylight
11 Aug - 07:27:56 10° SE 07:32:06 11° ESE 07:36:26 10° ESE daylight
11 Aug - 09:35:39 10° SSW 09:53:18 36° SE 10:12:18 10° E daylight
11 Aug - 11:55:42 10° SW 12:17:38 56° SSE 12:36:52 10° E daylight
11 Aug - 14:20:19 10° W 14:42:47 57° S 14:58:27 10° ESE daylight
11 Aug - 16:47:44 10° W 17:05:28 37° SW 17:16:57 10° SSE daylight
12 Aug - 07:41:44 10° SSE 07:52:03 17° SE 08:03:36 10° E daylight
12 Aug - 09:55:16 10° SSW 10:13:53 42° SSE 10:33:51 10° E daylight
12 Aug - 12:16:26 10° WSW 12:38:42 59° S 12:57:51 10° E daylight
12 Aug - 14:41:36 10° W 15:03:42 55° SSW 15:19:00 10° SE daylight
12 Aug - 17:09:35 10° W 17:25:43 31° SW 17:36:36 10° SSE daylight
13 Aug - 07:59:06 10° S 08:12:05 22° SE 08:27:13 10° E daylight
13 Aug - 10:15:15 10° SW 10:34:35 47° SSE 10:55:14 10° E daylight
13 Aug - 12:37:19 10° WSW 12:59:49 60° S 13:18:45 10° ESE daylight
13 Aug - 15:02:57 10° W 15:24:32 50° SSW 15:39:24 10° SE daylight
13 Aug - 17:31:46 10° W 17:45:49 24° SW 17:55:49 10° S daylight
14 Aug - 08:17:38 10° S 08:32:14 29° SE 08:49:46 10° E daylight
14 Aug - 10:35:30 10° SW 10:55:25 52° SSE 11:16:28 10° E daylight
14 Aug - 12:58:20 10° WSW 13:20:56 60° S 13:39:35 10° ESE daylight
14 Aug - 15:24:23 10° W 15:45:11 45° SSW 15:59:37 10° SE daylight
14 Aug - 17:54:36 10° W 18:05:46 19° SW 18:14:19 10° SSW daylight
15 Aug - 08:36:50 10° SSW 08:52:31 35° SE 09:11:46 10° E daylight
15 Aug - 10:55:59 10° SW 11:16:23 56° SSE 11:37:38 10° E daylight
15 Aug - 13:19:26 10° W 13:42:00 59° S 14:00:19 10° ESE daylight
15 Aug - 15:45:57 10° W 16:05:42 40° SW 16:19:36 10° SSE daylight
15 Aug - 18:19:00 10° W 18:25:36 13° WSW 18:31:14 10° SW daylight
16 Aug - 06:43:50 10° SSE 06:52:04 15° ESE 07:01:41 10° E daylight
16 Aug - 08:56:28 10° SSW 09:12:58 41° SE 09:33:27 10° E daylight
16 Aug - 11:16:38 10° WSW 11:37:26 59° S 11:58:42 10° E daylight
16 Aug - 13:40:37 10° W 14:03:00 56° SSW 14:20:56 10° SE daylight
16 Aug - 16:07:43 10° W 16:26:02 33° SW 16:39:16 10° SSE daylight
17 Aug - 07:01:04 10° S 07:11:58 21° SE 07:25:38 10° E daylight
17 Aug - 09:16:26 10° SW 09:33:34 47° SSE 09:54:55 10° E daylight
17 Aug - 11:37:26 10° WSW 11:58:33 61° S 12:19:42 10° ESE daylight
17 Aug - 14:01:52 10° W 14:23:54 52° SSW 14:41:22 10° SE daylight
17 Aug - 16:29:48 10° W 16:46:13 27° SW 16:58:31 10° S daylight
